sat.trackr.live / text

‹ back to catalog

STARLINK-2726

NORAD 48662 · 2021-044AA

PAYLOAD ACTIVE UNKNOWN

§ Identity

Operator
Country
US
Launch date
2021-05-26
Launch site
AFETR
Launch vehicle
Mass (kg)
RCS (m²)

Purposes: comms

External: N2YO · Heavens-Above · Gunter

§ Orbital elements

Epoch: 2026-09-15T20:47:52.359072Z

Period
94.01 min
Inclination
53.1606°
Eccentricity
0.0001321
Mean motion
15.31703558 rev/d
Perigee alt
469.8 km
Apogee alt
471.6 km
Semi-major
6,848.9 km
B*
-2.0145e-5
RAAN
310.3738°
Arg perigee
90.2681°
Mean anomaly
269.8471°
Rev number
29,293

§ Raw data

STARLINK-27261 48662U 21044AA  26258.86657823 -.00000990  00000+0 -20145-4 0  99902 48662  53.1606 310.3738 0001321  90.2681 269.8471 15.31703558292937

JSON: /api/v1/satellites/48662 · /tle

For live sub-satellite position, see the globe view (requires WebGL).

§ Visibility from observer

Set your observer location to see the next 7 days of passes ≥ 10°. The values pass through the URL so the page stays shareable.

No JS? Fill the form by hand. The geolocation button needs JavaScript.